DW8427 Weather Reports


Display with metric or nautical units.
time (UTC)temp
F
wind
direction
speed
MPH
gust
MPH
rain 1hr
in
rain 24hr
in
rain mn
in
humidity
%
barometer
mb
20260903230055 75 163 0.0 3.0 0.00 0.00 0.00 59 1011.4
20260903224543 75 131 0.0 5.0 0.00 0.00 0.00 60 1011.5
20260903223058 75 115 0.0 4.0 0.00 0.00 0.00 60 1011.9
20260903221533 75 106 1.0 7.0 0.00 0.00 0.00 59 1012.1
20260903220030 75 11 1.0 5.0 0.00 0.00 0.00 59 1012.4
20260903214528 75 90 3.0 9.0 0.00 0.00 0.00 60 1012.4
20260903213040 74 288 2.0 11.0 0.00 0.00 0.00 60 1012.6
20260903211527 75 126 1.0 6.0 0.00 0.00 0.00 59 1012.7
20260903210024 74 46 0.0 7.0 0.00 0.00 0.00 61 1012.7
20260903204523 75 270 3.0 11.0 0.00 0.00 0.00 59 1012.8
20260903203029 75 351 0.0 5.0 0.00 0.00 0.00 59 1012.7
20260903201522 74 233 2.0 9.0 0.00 0.00 0.00 59 1012.8
20260903200019 76 259 0.0 6.0 0.00 0.00 0.00 58 1013.0
20260903194533 77 49 0.0 3.0 0.00 0.00 0.00 57 1013.1
20260903193017 76 115 0.0 3.0 0.00 0.00 0.00 59 1013.3
20260903191510 74 138 0.0 5.0 0.00 0.00 0.00 62 1013.5
20260903190007 74 288 0.0 7.0 0.00 0.00 0.00 62 1013.8
20260903184505 73 75 1.0 5.0 0.00 0.00 0.00 63 1014.0
20260903183003 72 132 1.0 5.0 0.00 0.00 0.00 64 1014.1
20260903181559 71 169 1.0 4.0 0.00 0.00 0.00 66 1014.3
20260903180057 70 135 2.0 5.0 0.00 0.00 0.00 67 1014.3
20260903174553 67 106 2.0 5.0 0.00 0.00 0.00 69 1014.5
20260903173050 66 117 0.0 7.0 0.00 0.00 0.00 71 1014.5
20260903171546 66 158 1.0 4.0 0.00 0.00 0.00 72 1014.7
20260903170043 65 100 2.0 7.0 0.00 0.00 0.00 73 1014.7
20260903164541 64 130 2.0 6.0 0.00 0.00 0.00 73 1014.6
20260903163042 64 117 2.0 4.0 0.00 0.00 0.00 74 1014.7
20260903161538 63 151 3.0 7.0 0.00 0.00 0.00 75 1014.9
20260903160043 63 135 2.0 5.0 0.00 0.00 0.00 75 1015.0
20260903154538 63 140 2.0 6.0 0.00 0.00 0.00 76 1015.0
20260903153036 62 94 1.0 5.0 0.00 0.00 0.00 77 1015.2
20260903151534 61 108 2.0 7.0 0.00 0.00 0.00 78 1015.1
20260903150044 60 91 3.0 8.0 0.00 0.00 0.00 79 1015.0
20260903144538 60 79 3.0 6.0 0.00 0.00 0.00 79 1015.0
20260903143032 60 98 1.0 6.0 0.00 0.00 0.00 79 1015.0
20260903141531 59 108 2.0 6.0 0.00 0.00 0.00 80 1014.8
20260903140035 59 127 2.0 6.0 0.00 0.00 0.00 79 1014.7
20260903134537 59 99 1.0 4.0 0.00 0.00 0.00 79 1014.7
20260903133032 59 123 3.0 7.0 0.00 0.00 0.00 79 1014.7
20260903131526 59 89 2.0 6.0 0.00 0.00 0.00 78 1014.7
20260903130024 59 122 2.0 6.0 0.00 0.00 0.00 79 1014.8
20260903124524 59 99 2.0 5.0 0.00 0.00 0.00 79 1014.8
20260903123022 59 129 2.0 8.0 0.00 0.00 0.00 78 1014.8
20260903121543 59 123 2.0 8.0 0.00 0.00 0.00 78 1014.8
20260903120019 59 105 1.0 5.0 0.00 0.00 0.00 78 1014.9
20260903114518 59 105 2.0 5.0 0.00 0.00 0.00 78 1015.0
20260903113017 60 122 2.0 6.0 0.00 0.00 0.00 78 1015.2
20260903111514 60 89 1.0 6.0 0.00 0.00 0.00 78 1015.2
20260903110012 60 100 2.0 6.0 0.00 0.00 0.00 78 1015.2
20260903104512 60 143 3.0 7.0 0.00 0.00 0.00 79 1015.2
20260903103011 60 136 1.0 5.0 0.00 0.00 0.00 79 1015.2
20260903101509 60 124 1.0 6.0 0.00 0.00 0.00 78 1015.2
20260903100019 60 126 2.0 8.0 0.00 0.00 0.00 79 1015.2
20260903094506 60 131 2.0 7.0 0.00 0.00 0.00 78 1015.3
20260903093006 59 139 3.0 7.0 0.00 0.00 0.00 78 1015.3
20260903091503 60 103 2.0 6.0 0.00 0.00 0.00 77 1015.4
20260903090002 60 88 3.0 9.0 0.00 0.00 0.00 76 1015.5
20260903084603 60 97 2.0 7.0 0.00 0.00 0.00 74 1015.5
20260903083056 60 86 2.0 6.0 0.00 0.00 0.00 74 1015.4
20260903081554 61 142 2.0 6.0 0.00 0.00 0.00 74 1015.4
20260903080050 61 100 2.0 6.0 0.00 0.00 0.00 72 1015.4
20260903074548 62 86 0.0 7.0 0.00 0.00 0.00 71 1015.4
20260903073054 62 115 4.0 7.0 0.00 0.00 0.00 70 1015.4
20260903071543 63 123 0.0 6.0 0.00 0.00 0.00 69 1015.3
20260903070040 63 78 1.0 5.0 0.00 0.00 0.00 67 1015.3
20260903064539 64 89 1.0 5.0 0.00 0.00 0.00 66 1015.3
20260903063043 65 115 0.0 3.0 0.00 0.00 0.00 65 1015.3
20260903061540 65 105 0.0 3.0 0.00 0.00 0.00 64 1015.3
20260903060049 65 130 0.0 3.0 0.00 0.00 0.00 63 1015.4
20260903054537 66 115 0.0 3.0 0.00 0.00 0.00 63 1015.4
20260903053043 66 110 0.0 0.0 0.00 0.00 0.00 63 1015.4
20260903051539 67 105 0.0 0.0 0.00 0.00 0.00 61 1015.3
20260903050042 67 113 0.0 2.0 0.00 0.00 0.00 60 1015.4
20260903044539 68 122 0.0 0.0 0.00 0.00 0.00 60 1015.4
20260903043036 68 37 0.0 0.0 0.00 0.00 0.00 61 1015.3
20260903041537 67 37 0.0 0.0 0.00 0.00 0.00 62 1015.2
20260903040034 68 37 0.0 0.0 0.00 0.00 0.00 60 1015.0
20260903034534 68 37 0.0 0.0 0.00 0.00 0.00 60 1014.7
20260903033033 69 37 0.0 0.0 0.00 0.00 0.00 59 1014.5
20260903031540 70 37 0.0 0.0 0.00 0.00 0.00 58 1014.4
20260903030043 71 34 0.0 1.0 0.00 0.00 0.00 58 1014.3
20260903024530 72 296 0.0 1.0 0.00 0.00 0.00 58 1014.4
20260903023032 73 1 0.0 4.0 0.00 0.00 0.00 57 1014.4
20260903021540 74 338 0.0 0.0 0.00 0.00 0.00 55 1014.4
20260903020035 75 15 0.0 1.0 0.00 0.00 0.00 55 1014.4
20260903014527 76 302 0.0 1.0 0.00 0.00 0.00 54 1014.5
20260903013027 77 115 0.0 3.0 0.00 0.00 0.00 52 1014.6
20260903011533 77 327 0.0 3.0 0.00 0.00 0.00 52 1014.6
20260903010031 78 77 0.0 4.0 0.00 0.00 0.00 51 1014.6
20260903004529 78 301 0.0 5.0 0.00 0.00 0.00 51 1014.7
20260903003024 77 338 0.0 8.0 0.00 0.00 0.00 52 1014.8
20260903001523 78 256 0.0 6.0 0.00 0.00 0.00 51 1014.9
20260903000036 79 278 0.0 11.0 0.00 0.00 0.00 50 1014.9
20260902234518 79 181 0.0 4.0 0.00 0.00 0.00 51 1015.0
20260902233021 78 22 0.0 8.0 0.00 0.00 0.00 52 1015.1
20260902231518 79 300 0.0 4.0 0.00 0.00 0.00 51 1015.3